Regional Weather Roundup
Issued by NWS

Home | Current Version | Previous Version | Text Only | Print | Product List | Glossary On
Versions: 1 2 3 4 5 6 7 8 9 10 11 12 13 14 15 16 17 18 19 20 21 22 23 24 25 26 27
000
ASUS46 KSEW 211810
RWRWA

WASHINGTON REGIONAL WEATHER ROUNDUP
NATIONAL WEATHER SERVICE SEATTLE WA
1100 AM PDT THU SEP 21 2017

NOTE:"FAIR" INDICATES FEW OR NO CLOUDS BELOW 12,000 FEET WITH NO
SIGNIFICANT WEATHER AND/OR OBSTRUCTIONS TO VISIBILITY.

WAZ507-509-555>559-211900-
SEATTLE, TACOMA, EVERETT, AND VICINITY

CITY           SKY/WX    TMP DP  RH WIND       PRES   REMARKS
EVERETT        PTSUNNY   54  49  83 NW7       29.95R
6HR MIN TEMP:  50; 6HR MAX TEMP:  53; 6HR PCP: TRACE;

BOEING FIELD   PTSUNNY   54  50  86 VRB3      29.94S
6HR MIN TEMP:  51; 6HR MAX TEMP:  55; 6HR PCP: TRACE;

RENTON         CLOUDY    54  52  93 S5        29.94R
6HR MIN TEMP:  51; 6HR MAX TEMP:  54; 6HR PCP:  0.01;

SEATAC AIRPORT CLOUDY    52  50  93 SW7       29.94R
6HR MIN TEMP:  50; 6HR MAX TEMP:  52; 6HR PCP:  0.02;

JBLM-MCCHORD   CLOUDY    51  51  99 CALM      29.95R
6HR MIN TEMP:  46; 6HR MAX TEMP:  51; 6HR PCP:  0.09;

PUYALLUP       PTSUNNY   54  48  82 CALM      29.95R
BREMERTON      CLOUDY    52  49  89 CALM      29.95R
6HR MIN TEMP:  47; 6HR MAX TEMP:  53; 6HR PCP:  0.05;

JBLM-FT LEWIS  LGT RAIN  52  52 100 CALM      29.94R
TACOMA NARROWS LGT RAIN  50  50 100 S3        29.94S
6HR MIN TEMP:  49; 6HR MAX TEMP:  50; 6HR PCP:  0.14;

$$

WAZ001-503-506-510-514-515-211900-
NORTH INTERIOR

CITY           SKY/WX    TMP DP  RH WIND       PRES   REMARKS
BELLINGHAM     MOSUNNY   58  49  72 E6        29.94S
6HR MIN TEMP:  49; 6HR MAX TEMP:  58;

FRIDAY HARBOR  SUNNY     59  49  69 E6        29.95S
6HR MIN TEMP:  46; 6HR MAX TEMP:  60;

EASTSOUND      SUNNY     55  46  71 CALM      29.95R
PORT ANGELES   SUNNY     58  47  66 CALM      29.95R
6HR MIN TEMP:  45; 6HR MAX TEMP:  58;

EDIZ HOOK      FAIR      55  49  79 CALM      29.95S
6HR MIN TEMP:  48; 6HR MAX TEMP:  55;

PORT TOWNSEND  FAIR      57  46  67 CALM      29.95S
NAS WHIDBEY    PTSUNNY   59  48  67 NW6       29.98R
6HR MIN TEMP:  50; 6HR MAX TEMP:  59; 6HR PCP: TRACE;

ARLINGTON      CLOUDY    54  49  83 CALM      29.95R
6HR MIN TEMP:  49; 6HR MAX TEMP:  54; 6HR PCP: TRACE;

BURLINGTON     CLOUDY    59  50  72 NW7       29.95R
$$

WAZ020-022-039-040-504-511-512-211900-
SOUTHWEST INTERIOR

CITY           SKY/WX    TMP DP  RH WIND       PRES   REMARKS
SHELTON        PTSUNNY   54  49  83 N3        29.92S
6HR MIN TEMP:  49; 6HR MAX TEMP:  54;

OLYMPIA        PTSUNNY   53  49  86 S5        29.95R
6HR MIN TEMP:  47; 6HR MAX TEMP:  53;

CHEHALIS       PTSUNNY   54  50  87 S3        29.95R
KELSO          CLOUDY    56  50  80 S7        29.95S
VANCOUVER      CLOUDY    54  50  86 VRB3      29.95S
6HR MIN TEMP:  49; 6HR MAX TEMP:  54; 6HR PCP:  0.01;

SCAPPOOSE, OR  CLOUDY    54  48  80 SE5       29.94S
6HR MIN TEMP:  45; 6HR MAX TEMP:  54; 6HR PCP: TRACE;

PORTLAND, OR   CLOUDY    53  49  86 S8        29.96R
6HR MIN TEMP:  49; 6HR MAX TEMP:  53; 6HR PCP:  0.02;

$$

WAZ021-516-517-211900-
WASHINGTON COAST

CITY           SKY/WX    TMP DP  RH WIND       PRES   REMARKS
FORKS          SUNNY     59  47  64 VRB3      29.91S
6HR MIN TEMP:  42; 6HR MAX TEMP:  59;

HOQUIAM        PTSUNNY   57  53  86 NE3       29.93R
6HR MIN TEMP:  46; 6HR MAX TEMP:  57;

ASTORIA, OR    CLOUDY    59  49  69 CALM      29.92R
6HR MIN TEMP:  46; 6HR MAX TEMP:  59;

$$

WAZ019-023-024-040-567>569-211900-
CASCADE MOUNTAINS AND COLUMBIA GORGE

CITY           SKY/WX    TMP DP  RH WIND       PRES   REMARKS
STAMPEDE PASS  NOT AVBL
TROUTDALE, OR  CLOUDY    53  48  83 CALM      29.96R
6HR MIN TEMP:  50; 6HR MAX TEMP:  53; 6HR PCP:  0.01;

HOOD RIVER, OR NOT AVBL
THE DALLES, OR PTSUNNY   60  46  59 NW15      29.90S
6HR MIN TEMP:  48; 6HR MAX TEMP:  60;

$$

WAZ026-027-041>044-520-521-211900-
EAST SLOPES

CITY           SKY/WX    TMP DP  RH WIND       PRES   REMARKS
OMAK           PTSUNNY   57  44  62 N13       29.88S
6HR MIN TEMP:  43; 6HR MAX TEMP:  57;

WENATCHEE      PTSUNNY   55  38  52 W6        29.88S
6HR MIN TEMP:  46; 6HR MAX TEMP:  55;

ELLENSBURG     CLOUDY    56  41  57 CALM      29.88S
6HR MIN TEMP:  44; 6HR MAX TEMP:  56; 6HR PCP: TRACE;

YAKIMA         CLOUDY    57  42  57 W3        29.90S
6HR MIN TEMP:  39; 6HR MAX TEMP:  57; 6HR PCP: TRACE;

SUNNYSIDE ARPT CLOUDY    51  41  69 W3        29.90R
6HR MIN TEMP:  34; 6HR MAX TEMP:  51;

YAKIMA TC      FAIR      55  42  61 CALM      29.87S
6HR MIN TEMP:  39; 6HR MAX TEMP:  55; 6HR PCP:  0.02;

$$

WAZ028-034-035-211900-
COLUMBIA BASIN

CITY           SKY/WX    TMP DP  RH WIND       PRES   REMARKS
EPHRATA        MOSUNNY   55  41  59 S3        29.87F
6HR MIN TEMP:  41; 6HR MAX TEMP:  55;

MOSES LAKE     PTSUNNY   53  41  63 CALM      29.89S
6HR MIN TEMP:  38; 6HR MAX TEMP:  53;

PASCO          CLOUDY    57  45  64 NW6       29.91R
6HR MIN TEMP:  37; 6HR MAX TEMP:  57;

RICHLAND ARPT  CLOUDY    54  43  66 NW7       29.91S
6HR MIN TEMP:  43; 6HR MAX TEMP:  55;

HERMISTON, OR  MOSUNNY   58  45  62 W13       29.89S
6HR MIN TEMP:  42; 6HR MAX TEMP:  58;

$$

WAZ036>038-211900-
NORTHEAST WASHINGTON

CITY           SKY/WX    TMP DP  RH WIND       PRES   REMARKS
SPOKANE GEIGER CLOUDY    44  43  96 S6        29.88R
6HR MIN TEMP:  40; 6HR MAX TEMP:  44; 6HR PCP:  0.24;

SPOKANE FELTS  CLOUDY    46  43  89 SE3       29.89R
6HR MIN TEMP:  44; 6HR MAX TEMP:  46; 6HR PCP:  0.11;

FAIRCHILD AFB  CLOUDY    43  43 100 S6        29.87R
6HR MIN TEMP:  40; 6HR MAX TEMP:  43; 6HR PCP:  0.35;

COEURDALENE,ID CLOUDY    44  42  93 CALM      29.89R
6HR MIN TEMP:  43; 6HR MAX TEMP:  45; 6HR PCP: TRACE;

DEER PARK      CLOUDY    46  43  89 S7        29.88S
6HR MIN TEMP:  42; 6HR MAX TEMP:  46; 6HR PCP:  0.07;

$$

WAZ029>033-211900-
SOUTHEAST WASHINGTON

CITY           SKY/WX    TMP DP  RH WIND       PRES   REMARKS
PULLMAN        CLOUDY    47  40  76 SW3       29.90R
6HR MIN TEMP:  36; 6HR MAX TEMP:  47;

LEWISTON, ID   CLOUDY    51  45  79 NW3       29.89R
6HR MIN TEMP:  44; 6HR MAX TEMP:  52;

WALLA WALLA    CLOUDY    55  42  61 SW9       29.90R
6HR MIN TEMP:  46; 6HR MAX TEMP:  56;

PENDLETON, OR  MOSUNNY   56  40  55 W10       29.89S
6HR MIN TEMP:  43; 6HR MAX TEMP:  56;

$$




USA.gov is the U.S. government's official web portal to all federal, state and local government web resources and services.